Location: Newark
(30.1000°N, 109.4667°E)
Time: 02:24:47
(UTC+00:00)

SR - Pass Details

Date: 19 February 2020
Orbit: 578 x 878 km, 66.7° (Epoch: 08 April)

Event Time Altitude Azimuth Distance (km) Brightness Sun altitude
Rises 17:19:21 0° 347° (NNW) 3,232 - -70.4°
Reaches altitude 10° 17:22:10 10° 359° (N) 2,248 - -70.2°
Maximum altitude 17:26:31 28° 57° (ENE) 1,308 - -69.9°
Drops below altitude 10° 17:30:32 10° 116° (ESE) 2,072 - -69.5°
Sets 17:33:01 0° 129° (SE) 2,932 - -69.3°
